Content
SEND FEEDBACK

Daily
Averages
Monthly
Summary
United States of America

PUT IN BAY, OHIO


Home > North America > United States > Ohio
Elevation: 561 feet     Latitude: 41 39N     Longitude: 082 48W

WEATHER
 
SELECT A DAY
Number of Records: 125,373;   Date Range: 12/10/00 - 12/17/14
 
SHARE

PRINT THIS DATA

[ ← Previous Day ]
WEATHER ALMANAC - JUNE 16, 2014
[ Next Day → ]
[ °C ]   °F
Weather ElementAverageHighLow
Temperature77.8 °F86 °F (5:00 pm)70.5 °F (11:00 pm)
Dewpoint63.5 °F66.2 °F (9:00 am)59.2 °F (5:00 pm)
Humidity61.3 %85 % (11:00 pm)37 % (2:00 pm)
Barometer29.99 in30.03 in (9:00 am)29.96 in (7:00 pm)
Wind Speed8 mph10.4 mph (2:00 am)
Weather ElementAverage
Wind DirectionSSW (211.9 °)

Weather ElementTotal
Precipitation---
Cooling Degree Days13.3 (Base 65)
Growing Degree Days28.3 (Base 50)
Averaged from 27 records on June 16, 2014
WEATHER CONDITIONS BREAKOUT
WIND DIRECTION BREAKOUT
WEATHER BY HOUR - JUNE 16, 2014
[ °C ]   °F
Local TimeTemperatureDewpointHumidityBarometerVisibilityWind DirectionWind SpeedGust SpeedPrecipitationEventsConditions
1:00 AM71.2 °F60.8 °F69 %29.98 inSSE (160°)8.1 mph
2:00 AM73.0 °F62.0 °F60 %29.98 inSouth (190°)10.4 mph
2:00 AM72.7 °F61.9 °F69 %29.98 inSouth (190°)10.4 mph
3:00 AM73.6 °F62.1 °F67 %29.97 inSSW (200°)9.2 mph
4:00 AM73.8 °F62.2 °F67 %29.97 inSSW (210°)8.1 mph
5:00 AM73.6 °F62.1 °F67 %29.97 inSW (230°)9.2 mph
6:00 AM73.0 °F62.8 °F70 %29.99 inSW (230°)8.1 mph
7:00 AM72.9 °F64.6 °F75 %30.00 inWSW (240°)9.2 mph
8:00 AM74.0 °F66.0 °F68 %30.01 inWSW (250°)9.2 mph
8:00 AM74.3 °F65.7 °F74 %30.01 inWSW (250°)9.2 mph
9:00 AM74.3 °F66.2 °F76 %30.03 inWSW (240°)9.2 mph
10:00 AM78.3 °F66.0 °F66 %30.03 inWSW (250°)10.4 mph
11:00 AM80.8 °F66.0 °F61 %30.03 inWSW (240°)9.2 mph
12:00 PM82.6 °F65.8 °F57 %30.03 inSW (230°)9.2 mph
1:00 PM82.6 °F64.2 °F54 %30.02 inWSW (250°)8.1 mph
2:00 PM84.0 °F62.0 °F37 %30.01 inWSW (240°)9.2 mph
2:00 PM84.2 °F61.9 °F47 %30.01 inWSW (240°)9.2 mph
3:00 PM84.9 °F61.3 °F45 %29.99 inSW (220°)8.1 mph
4:00 PM85.5 °F61.3 °F44 %29.98 inSW (220°)8.1 mph
5:00 PM86.0 °F59.2 °F40 %29.97 inSSW (210°)8.1 mph
6:00 PM84.4 °F62.2 °F47 %29.97 inSouth (180°)8.1 mph
7:00 PM82.6 °F62.8 °F51 %29.96 inSSW (200°)5.8 mph
8:00 PM80.0 °F65.0 °F52 %29.98 inSouth (170°)5.8 mph
8:00 PM79.9 °F63.5 °F57 %29.98 inSouth (170°)5.8 mph
9:00 PM75.9 °F66.0 °F71 %29.99 inSouth (180°)3.5 mph
10:00 PM72.9 °F65.8 °F79 %29.98 inSSE (150°)2.3 mph
11:00 PM70.5 °F65.7 °F85 %29.97 inSouth (180°)3.5 mph
Hourly data recorded from CXHA, located miles away from Put In Bay, Ohio







STORIES FROM OUR PARTNERS